Wind_Speed
6 6 6 6 4 2 7 4 4 1 5 7 4 3 1 6 6 2 3 4 6 9 9 10 11 12 12 12 12 12 12 13 13 12 13 13 13 14 14 14 14 13 13 13 13 14 14 16 17
7 7 4 6 6 10 8 4 5 9 6 6 4 7 1 2 5 5 5 6 6 8 9 9 9 10 10 10 10 11 11 12 11 12 12 13 13 14 14 15 14 14 13 13 13 13 13 14 15
8 6 2 6 6 4 5 2 8 9 7 6 4 3 3 4 7 7 7 7 7 7 7 8 8 8 8 8 9 9 10 10 10 10 11 12 13 13 14 14 14 14 14 13 13 13 13 13 13
8 5 3 5 8 3 3 6 9 8 5 4 2 3 3 5 7 8 7 7 7 7 6 6 6 6 6 7 8 8 8 9 9 9 10 11 11 12 14 15 15 15 15 14 13 13 12 13 13
7 7 6 9 6 5 5 7 6 7 4 3 2 3 4 6 7 8 8 7 7 7 6 6 5 4 4 5 6 7 8 9 9 9 9 10 12 13 14 14 14 15 15 15 15 15 14 14 13
8 5 9 11 8 6 4 6 4 3 4 1 4 4 7 7 9 8 7 7 6 6 6 5 4 3 4 4 6 7 8 9 9 10 10 11 12 12 13 13 14 14 15 15 15 15 15 14 14
11 9 10 10 1 2 5 6 3 4 5 2 4 4 6 8 8 8 8 7 6 4 5 3 2 3 4 5 7 7 8 9 9 9 10 11 11 11 12 12 13 14 14 14 15 16 15 15 15
13 6 10 10 6 5 13 11 7 5 9 4 6 2 10 9 9 9 8 7 6 4 3 2 1 3 5 5 6 7 8 8 8 9 9 10 10 11 11 12 12 13 14 14 15 15 15 15 15
13 6 7 9 8 6 10 11 9 6 7 7 11 10 8 10 10 9 8 7 5 4 1 1 2 3 4 5 6 7 7 7 8 8 9 9 10 10 11 11 12 12 13 13 14 14 15 16 16
10 5 5 6 11 2 10 6 11 6 7 9 11 8 9 11 10 10 8 6 5 3 2 2 3 4 5 5 5 6 6 7 7 8 8 9 10 11 11 11 12 12 13 14 14 14 14 14 13
6 4 4 13 16 13 10 9 12 9 9 8 10 13 11 12 11 10 8 7 5 4 4 3 4 5 5 6 6 6 6 7 7 7 8 9 10 11 11 12 12 13 14 14 14 15 15 14 15
6 11 9 13 16 15 13 12 13 11 11 15 13 11 12 11 10 9 8 7 7 5 5 5 5 6 6 7 7 7 8 8 8 9 10 10 11 12 12 12 13 14 14 15 15 15 15 16 16
5 13 12 11 9 10 12 11 13 12 14 12 13 12 12 11 11 10 9 8 7 6 6 6 7 7 8 7 7 7 8 8 8 8 9 10 11 12 13 14 15 16 16 16 16 16 16 17 17
11 10 6 5 6 7 8 10 11 11 13 13 13 13 13 13 12 11 10 10 9 8 7 7 8 9 9 9 9 9 9 9 9 10 10 11 12 13 15 16 17 18 18 18 18 17 17 18 18
5 5 2 3 3 4 5 6 6 10 11 12 13 14 14 13 13 12 12 11 10 10 9 9 9 9 9 9 8 9 9 9 9 11 11 13 14 16 17 19 19 20 20 20 19 19 19 20 20
3 3 6 6 6 3 2 3 3 7 10 12 14 14 15 14 14 14 13 12 11 11 10 10 9 8 9 8 8 8 9 9 9 11 12 14 17 19 20 21 21 20 20 21 20 20 19 20 20
3 5 3 8 8 6 5 3 8 6 10 12 14 15 15 16 15 15 14 13 12 11 10 10 10 8 7 7 7 8 8 8 9 11 14 17 19 20 20 20 20 19 19 20 20 20 20 20 21
4 4 1 6 11 7 10 7 10 9 10 11 13 15 16 15 14 15 13 12 11 11 9 9 8 7 6 5 5 5 5 6 9 13 15 16 17 18 18 19 18 19 19 19 20 19 19 19 20
8 5 5 7 16 13 12 12 12 13 12 13 14 15 15 14 14 13 12 11 9 8 7 6 6 4 4 3 3 3 5 7 11 14 15 16 18 18 18 18 19 19 19 19 19 19 18 19 21
8 6 5 10 15 12 11 16 14 16 14 13 13 14 14 13 13 10 9 8 7 7 6 5 4 3 2 2 2 4 6 9 12 13 15 17 19 20 20 20 20 20 20 19 20 21 21 21 24
5 10 10 11 14 13 13 17 17 17 17 16 15 14 14 13 12 10 10 9 8 7 6 5 3 2 1 0 2 3 6 9 10 13 15 17 19 21 21 21 21 21 20 20 21 22 23 23 23
7 11 12 11 8 3 6 8 8 12 19 20 19 19 17 15 14 12 11 9 9 8 7 6 4 3 2 1 1 3 5 7 10 12 15 17 19 21 22 23 23 23 22 22 23 23 23 25 24
10 10 11 11 9 11 9 9 10 18 18 22 20 19 18 15 14 13 11 11 10 9 8 7 5 4 3 2 0 1 3 5 8 10 12 14 17 20 22 24 24 24 24 25 25 26 26 27 26
14 10 10 10 5 6 13 15 9 20 14 18 19 18 16 15 15 14 14 13 12 11 9 8 8 6 5 3 2 1 2 4 7 10 12 16 19 21 23 24 25 26 26 27 27 28 29 29 29
12 7 3 3 3 5 7 11 18 17 14 16 15 14 15 16 17 17 15 14 14 12 11 10 9 8 6 5 3 2 1 3 6 10 15 18 21 22 23 25 26 27 28 29 30 30 29 30 31
8 11 5 4 1 0 6 10 9 21 13 15 15 15 17 18 18 18 17 16 15 14 13 12 10 9 7 6 4 2 1 4 8 12 16 20 24 26 27 27 26 27 28 29 31 32 32 33 32
9 14 13 6 10 4 9 11 13 15 20 21 19 19 19 20 19 19 18 17 15 14 13 13 12 10 8 7 5 3 2 4 8 12 16 20 24 26 27 28 29 28 28 30 32 32 32 34 34
19 14 8 10 3 4 9 18 14 15 19 24 23 20 21 21 21 21 19 17 16 16 15 14 12 11 9 7 6 5 4 5 8 12 16 21 24 27 28 27 28 29 30 31 32 33 34 35 35
27 25 13 9 10 3 4 4 8 10 12 18 22 21 20 20 20 20 19 17 17 17 16 15 14 12 11 10 9 8 7 7 9 12 17 21 24 27 29 30 31 31 32 32 33 33 33 34 35
20 23 30 8 6 12 5 10 4 6 8 14 21 22 20 20 21 21 20 19 18 17 18 16 15 14 13 13 12 11 10 10 11 14 18 22 24 27 30 32 33 35 35 34 33 33 33 34 34
Wind_Direction
265 284 329 353 2 328 67 16 71 287 285 336 9 76 67 203 177 218 159 98 86 94 93 87 82 77 71 68 68 67 64 63 59 56 55 54 51 49 49 48 47 49 52 50 43 41 42 44 43
247 273 338 30 309 319 76 72 264 333 342 349 45 83 215 106 179 149 138 124 111 105 98 87 81 76 74 69 66 61 59 57 55 52 48 46 46 46 43 43 45 44 46 45 43 41 38 37 41
230 251 339 326 283 36 37 304 299 348 356 2 69 92 149 134 134 134 139 136 128 112 103 96 86 74 63 57 54 50 49 49 47 45 46 43 41 41 42 42 41 41 41 41 39 35 32 31 31
226 235 286 270 281 8 37 253 321 341 6 4 95 78 122 138 143 141 146 145 137 127 120 107 93 75 59 50 46 47 45 45 46 44 41 41 40 39 38 37 37 35 35 33 31 31 29 26 25
200 183 239 251 280 264 217 254 336 334 338 19 138 207 149 165 151 154 157 149 146 136 126 113 100 86 70 53 43 40 39 40 41 41 40 38 36 34 33 33 34 34 32 31 30 27 25 21 20
178 193 247 256 223 188 242 283 307 230 316 22 163 165 158 169 166 163 158 158 152 137 124 119 103 83 51 36 30 28 28 29 32 33 33 33 33 31 29 28 27 28 29 27 26 26 26 24 19
188 210 249 278 241 270 226 261 83 242 290 244 174 179 176 175 175 165 169 164 156 144 132 123 88 43 26 20 18 20 23 23 25 26 27 29 28 26 24 22 22 21 22 21 20 20 20 19 18
188 235 234 256 261 239 221 271 274 242 248 238 194 218 192 179 180 179 180 174 168 166 157 116 56 19 11 8 9 12 17 20 19 19 22 22 25 22 22 16 17 15 14 15 13 11 10 12 14
195 192 238 242 229 223 247 270 263 266 257 231 208 215 165 182 188 186 186 183 179 178 176 340 352 357 358 355 360 3 8 11 11 11 14 14 16 13 13 12 12 10 8 8 6 5 3 1 2
187 203 297 175 193 223 270 230 268 246 237 217 219 203 186 195 195 193 194 192 193 204 234 289 309 330 336 352 346 351 356 358 2 3 4 7 5 7 8 5 6 4 3 1 0 358 357 356 354
194 235 242 231 229 236 261 257 248 247 216 226 223 196 199 199 198 198 199 203 208 226 248 264 293 314 323 329 335 340 344 346 349 352 355 357 356 357 357 357 357 357 356 358 355 353 352 349 350
199 249 240 259 247 249 245 245 244 233 196 215 214 200 202 200 203 206 211 218 226 237 256 280 293 301 310 317 327 335 336 337 340 342 344 347 348 347 348 349 348 349 350 350 350 348 349 348 347
195 269 243 251 248 245 248 251 246 231 217 220 210 215 205 208 210 215 220 229 242 256 273 287 296 299 304 309 315 323 327 329 332 334 338 341 340 341 342 342 340 340 340 341 341 341 341 341 341
230 253 252 256 251 251 252 247 237 221 219 221 213 215 212 214 220 226 235 243 254 267 280 290 293 298 302 308 314 319 323 328 331 333 338 341 342 341 340 339 335 333 332 331 331 333 333 334 335
241 237 279 271 274 276 280 261 241 225 216 219 217 220 221 222 228 235 242 254 263 273 279 284 294 296 301 307 312 317 321 328 332 335 345 345 344 341 339 335 331 327 324 324 324 325 325 326 328
231 300 249 292 314 287 255 360 268 224 215 220 221 223 226 231 235 241 249 255 262 270 278 284 285 290 297 304 310 315 321 330 339 348 351 346 341 339 337 333 329 327 325 323 322 320 319 319 320
288 262 204 299 315 287 253 187 278 230 226 224 227 229 231 236 240 247 253 254 264 271 278 283 288 293 297 304 309 318 330 338 346 349 346 345 343 344 343 339 338 336 332 328 326 322 319 317 317
346 283 280 276 286 286 283 247 251 246 236 234 235 238 241 241 244 248 252 257 262 269 275 278 282 291 300 302 310 319 332 341 347 348 349 350 350 348 347 344 341 339 338 336 335 332 330 324 318
263 269 292 281 277 292 285 267 251 248 232 230 234 237 241 243 243 246 249 252 254 256 265 266 275 278 282 299 312 326 338 349 352 353 353 352 351 348 348 344 342 341 339 338 336 333 331 323 318
260 282 314 275 282 294 285 272 252 238 238 233 233 233 233 233 237 234 232 235 234 239 244 250 253 265 278 299 324 344 350 354 356 355 352 350 349 348 347 345 342 338 337 335 331 329 329 325 321
292 285 258 264 286 303 311 292 244 236 237 234 233 231 226 228 231 230 229 225 225 224 226 229 225 228 238 307 340 352 359 360 356 354 354 350 349 346 345 344 342 338 334 331 326 325 325 322 322
261 260 282 288 302 309 313 293 279 244 239 234 232 231 231 232 236 232 228 221 216 211 208 207 205 199 194 191 10 2 358 359 356 354 352 348 346 344 342 340 340 338 333 329 326 323 322 319 319
254 266 285 292 290 303 278 238 286 250 238 228 228 227 228 228 227 227 214 212 209 204 202 198 191 187 186 180 143 3 0 356 356 356 352 349 345 342 338 336 333 330 328 326 324 323 321 317 317
258 280 293 289 295 258 262 214 222 230 259 228 221 222 216 212 211 211 208 205 204 203 198 191 186 182 183 183 175 123 9 360 358 359 357 354 351 346 340 336 329 325 322 320 320 321 320 317 315
247 252 267 260 199 236 164 208 239 223 253 223 218 212 206 204 202 201 204 204 204 200 198 193 188 185 185 185 177 152 15 354 358 1 5 360 356 351 347 340 332 325 319 317 316 316 316 314 313
242 207 261 289 266 288 215 235 246 224 235 219 215 207 206 202 199 201 202 204 204 204 201 199 196 192 192 192 193 201 281 344 1 5 3 0 357 353 349 346 341 330 321 315 312 312 313 312 311
226 213 226 267 297 277 240 259 243 232 227 220 215 209 204 199 200 204 205 205 207 211 210 208 205 203 204 205 213 237 283 339 356 358 358 358 356 352 348 345 341 334 325 318 314 313 310 308 308
215 207 200 214 241 245 259 227 248 224 222 217 215 206 203 202 203 206 208 210 213 215 219 220 218 216 221 225 234 257 287 329 343 350 351 353 350 348 347 345 342 336 328 321 317 315 312 311 309
220 216 211 207 226 239 315 233 220 241 251 230 218 207 207 209 211 212 213 216 219 221 225 229 230 232 236 243 253 265 286 311 326 335 341 342 342 344 345 346 345 341 334 327 322 317 314 312 311
230 238 228 211 211 231 273 274 201 294 309 226 218 212 212 214 218 218 220 223 227 228 230 233 237 241 246 252 263 271 282 298 314 326 330 332 334 340 343 344 344 342 337 331 324 319 317 315 313
Height
3193 3194 3194 3194 3196 3192 3192 3193 3194 3192 3191 3189 3188 3187 3187 3187 3188 3191 3186 3187 3186 3187 3188 3188 3188 3188 3188 3188 3188 3188 3188 3187 3186 3185 3185 3184 3183 3182 3181 3180 3179 3178 3177 3176 3175 3174 3173 3172 3170
3193 3194 3195 3195 3194 3192 3193 3193 3191 3190 3190 3189 3188 3187 3188 3187 3187 3187 3188 3188 3188 3188 3189 3189 3190 3190 3190 3190 3190 3190 3189 3189 3189 3188 3187 3186 3185 3184 3183 3182 3181 3180 3179 3178 3177 3176 3175 3174 3173
3192 3193 3196 3195 3194 3193 3194 3192 3191 3190 3189 3189 3188 3188 3188 3188 3188 3188 3189 3189 3190 3190 3191 3191 3191 3191 3192 3191 3191 3191 3192 3192 3191 3191 3190 3188 3187 3186 3185 3184 3183 3181 3180 3180 3179 3178 3177 3176 3175
3191 3194 3196 3195 3193 3193 3194 3192 3191 3190 3190 3189 3188 3189 3190 3189 3189 3190 3190 3191 3192 3193 3193 3193 3194 3194 3195 3195 3195 3195 3194 3193 3193 3193 3192 3190 3189 3188 3187 3186 3184 3183 3182 3181 3180 3179 3178 3177 3176
3190 3193 3194 3194 3193 3193 3192 3192 3192 3191 3190 3189 3189 3189 3190 3190 3191 3191 3192 3193 3194 3194 3195 3196 3196 3196 3197 3197 3196 3196 3195 3194 3194 3193 3191 3190 3189 3188 3187 3186 3186 3185 3184 3183 3182 3181 3180 3179 3178
3188 3192 3193 3192 3192 3191 3191 3192 3192 3192 3190 3190 3190 3189 3190 3191 3191 3193 3193 3194 3195 3195 3196 3197 3197 3198 3198 3198 3197 3196 3195 3194 3193 3193 3192 3191 3191 3190 3189 3189 3188 3186 3186 3185 3183 3182 3181 3180 3179
3187 3190 3191 3191 3191 3191 3191 3191 3193 3191 3190 3189 3190 3190 3190 3191 3192 3194 3194 3195 3196 3196 3197 3197 3198 3198 3198 3198 3197 3197 3196 3195 3194 3193 3193 3192 3192 3191 3190 3189 3188 3187 3186 3185 3185 3184 3182 3181 3180
3187 3189 3189 3190 3191 3191 3189 3190 3190 3190 3189 3189 3190 3190 3190 3191 3193 3194 3195 3196 3197 3197 3197 3198 3198 3199 3199 3199 3198 3197 3197 3196 3195 3194 3194 3193 3193 3192 3192 3190 3190 3188 3187 3186 3185 3184 3182 3182 3181
3186 3189 3188 3189 3190 3188 3188 3189 3189 3189 3189 3189 3189 3188 3191 3192 3193 3195 3195 3197 3197 3198 3198 3198 3199 3199 3199 3199 3198 3198 3197 3197 3196 3195 3194 3194 3194 3194 3192 3191 3190 3189 3188 3187 3186 3185 3183 3182 3181
3185 3187 3187 3187 3186 3188 3186 3188 3186 3188 3187 3188 3187 3190 3191 3192 3193 3195 3196 3197 3198 3198 3199 3199 3199 3199 3198 3198 3198 3198 3197 3197 3196 3195 3195 3194 3194 3193 3192 3191 3190 3189 3188 3187 3186 3185 3184 3183 3182
3185 3186 3185 3184 3185 3187 3186 3186 3185 3185 3186 3187 3187 3189 3191 3192 3194 3195 3196 3197 3198 3198 3198 3199 3198 3198 3198 3198 3198 3198 3198 3197 3196 3196 3195 3195 3194 3193 3192 3192 3190 3189 3188 3187 3186 3184 3183 3182 3181
3184 3184 3183 3182 3183 3184 3184 3183 3183 3183 3185 3184 3187 3188 3190 3192 3193 3195 3196 3196 3197 3198 3198 3198 3199 3199 3199 3198 3198 3198 3198 3197 3197 3196 3195 3194 3194 3193 3192 3191 3190 3189 3188 3186 3185 3184 3182 3181 3180
3183 3182 3181 3181 3181 3181 3181 3181 3181 3181 3183 3184 3186 3187 3190 3191 3193 3194 3195 3195 3196 3197 3198 3198 3198 3198 3198 3198 3198 3198 3197 3197 3196 3196 3195 3194 3193 3192 3191 3190 3189 3188 3187 3185 3183 3182 3180 3179 3177
3181 3180 3180 3179 3179 3179 3179 3179 3178 3180 3181 3183 3185 3187 3189 3190 3191 3192 3193 3194 3195 3196 3197 3197 3197 3197 3197 3197 3197 3197 3196 3196 3195 3195 3194 3193 3192 3191 3190 3189 3188 3186 3185 3183 3182 3181 3179 3177 3175
3180 3180 3179 3178 3178 3178 3178 3178 3177 3178 3180 3182 3183 3185 3187 3188 3189 3191 3192 3193 3194 3195 3195 3196 3196 3196 3196 3196 3196 3196 3195 3195 3194 3193 3194 3192 3191 3190 3189 3187 3185 3184 3181 3180 3179 3177 3176 3175 3173
3179 3180 3179 3177 3178 3178 3178 3177 3176 3177 3179 3180 3182 3183 3184 3186 3187 3189 3190 3191 3193 3193 3193 3194 3194 3195 3195 3195 3195 3195 3194 3194 3194 3193 3193 3191 3190 3189 3187 3185 3183 3181 3179 3177 3176 3175 3173 3172 3170
3179 3179 3179 3178 3178 3177 3177 3176 3175 3177 3177 3179 3180 3181 3182 3184 3185 3187 3188 3190 3191 3191 3191 3191 3192 3193 3193 3194 3194 3194 3194 3194 3193 3193 3192 3190 3189 3187 3185 3183 3181 3179 3177 3176 3174 3172 3171 3169 3167
3180 3180 3179 3178 3177 3176 3175 3175 3174 3174 3175 3176 3177 3178 3179 3181 3183 3184 3186 3187 3189 3189 3189 3189 3190 3191 3192 3192 3193 3193 3193 3193 3193 3192 3191 3189 3187 3185 3183 3181 3179 3177 3175 3174 3172 3170 3168 3166 3164
3179 3179 3179 3179 3175 3175 3173 3171 3172 3172 3173 3174 3175 3176 3177 3179 3180 3182 3183 3185 3186 3187 3187 3188 3189 3190 3190 3191 3191 3191 3191 3191 3191 3190 3188 3187 3185 3183 3181 3179 3177 3175 3173 3171 3169 3167 3166 3164 3160
3177 3177 3177 3176 3173 3172 3170 3168 3169 3169 3170 3171 3172 3174 3175 3177 3178 3180 3181 3183 3184 3185 3186 3187 3188 3188 3189 3189 3189 3190 3190 3190 3190 3188 3187 3185 3183 3181 3179 3177 3175 3172 3170 3168 3166 3163 3162 3160 3156
3176 3176 3175 3175 3172 3170 3167 3163 3163 3165 3166 3167 3169 3171 3173 3174 3176 3178 3180 3181 3183 3183 3184 3185 3186 3187 3187 3188 3188 3189 3189 3189 3188 3187 3186 3184 3182 3179 3177 3175 3173 3171 3168 3166 3163 3161 3158 3155 3153
3173 3174 3173 3172 3171 3170 3168 3165 3159 3160 3162 3163 3166 3168 3170 3172 3174 3175 3177 3179 3181 3182 3183 3184 3185 3186 3186 3187 3187 3187 3187 3187 3186 3185 3183 3182 3179 3177 3175 3172 3170 3167 3165 3163 3160 3157 3155 3152 3150
3171 3171 3171 3170 3169 3168 3165 3167 3156 3156 3156 3158 3162 3164 3166 3169 3171 3172 3175 3177 3179 3180 3182 3183 3184 3184 3185 3185 3186 3186 3186 3185 3185 3184 3183 3181 3179 3176 3173 3170 3167 3164 3161 3158 3156 3154 3152 3148 3146
3169 3170 3169 3168 3167 3166 3158 3161 3154 3151 3153 3155 3158 3160 3163 3166 3168 3170 3172 3175 3177 3178 3180 3181 3182 3182 3183 3183 3184 3184 3184 3183 3182 3181 3179 3177 3175 3172 3169 3166 3164 3161 3158 3156 3153 3150 3147 3144 3141
3167 3169 3168 3169 3167 3162 3158 3159 3149 3150 3150 3151 3154 3157 3161 3163 3166 3168 3170 3173 3174 3176 3178 3179 3180 3181 3181 3181 3181 3182 3181 3180 3180 3178 3177 3175 3173 3170 3167 3164 3160 3157 3154 3151 3148 3145 3142 3139 3136
3164 3167 3166 3166 3162 3158 3157 3151 3144 3146 3148 3149 3152 3155 3158 3160 3163 3165 3168 3170 3172 3174 3175 3177 3178 3178 3179 3179 3179 3179 3179 3178 3177 3176 3174 3172 3169 3166 3162 3159 3156 3153 3149 3146 3143 3139 3136 3133 3130
3161 3162 3165 3164 3160 3158 3151 3145 3144 3142 3144 3146 3148 3151 3155 3157 3160 3163 3165 3167 3169 3171 3173 3174 3175 3175 3176 3176 3176 3176 3176 3175 3175 3173 3171 3169 3166 3163 3159 3155 3150 3147 3144 3140 3137 3135 3132 3128 3125
3158 3159 3162 3163 3162 3158 3142 3141 3138 3137 3139 3142 3144 3147 3151 3154 3156 3159 3161 3164 3166 3168 3170 3171 3172 3172 3173 3173 3173 3173 3173 3172 3171 3170 3168 3166 3163 3160 3156 3152 3147 3143 3138 3134 3131 3128 3125 3122 3119
3152 3153 3156 3157 3155 3152 3147 3137 3135 3136 3137 3139 3142 3145 3148 3151 3154 3156 3159 3161 3163 3164 3166 3168 3168 3169 3169 3169 3169 3169 3169 3169 3168 3167 3165 3162 3160 3156 3152 3148 3144 3139 3135 3130 3126 3122 3119 3115 3112
3145 3147 3151 3151 3150 3148 3146 3136 3134 3134 3134 3136 3139 3142 3145 3148 3151 3153 3155 3157 3159 3160 3162 3163 3164 3165 3165 3166 3166 3166 3165 3165 3164 3162 3160 3159 3156 3152 3147 3143 3138 3133 3129 3125 3120 3116 3112 3108 3104